Printer-friendly version

IAU Minor Planet Center

Minor Planet Center

(164216) 2004 OT11

Orbital Elements

The following orbital elements are taken from MPO123689
(164216) 2004 OT11
Epoch 2007 Oct. 27.0 TT = JDT 2454400.5                 MPC
M  31.93634              (2000.0)            P               Q
n   0.31197423     Peri.  326.14669     -0.11888968     +0.94403025
a   2.1530638      Node   295.28718     -0.81881159     -0.26849764
e   0.5641392      Incl.   19.89492     -0.56161626     +0.19161397
P   3.16           H   17.3           G   0.15           U   1
From 315 observations at 3 oppositions, 2004-2007, mean residual 0".46.
An explanation of the orbital elements is available.

These orbital elements are also available in forms suitable for loading into a number of popular planetarium-type software programs.


Ephemeris

The following ephemeris is at intervals of five days. A daily ephemeris covering the same time interval is also available.

Personalized ephemerides for this (and other) objects may be generated using the Minor Planet & Comet Ephemeris Service.

Date    TT    R. A. (2000) Decl.     Delta      r     Elong.  Phase     V
2009 10 26    08 57.58   +18 37.5    2.857    2.875    81.0    20.0    22.9

2010 01 14    08 46.77   +12 40.3    1.543    2.498   162.2     6.9    20.7
2010 01 19    08 39.71   +12 29.1    1.499    2.470   168.2     4.7    20.5
2010 01 24    08 32.11   +12 18.8    1.462    2.442   172.7     2.9    20.4
2010 01 29    08 24.14   +12 09.4    1.434    2.414   172.2     3.2    20.3
2010 02 03    08 16.00   +12 00.5    1.413    2.384   167.2     5.3    20.4
2010 02 08    08 07.92   +11 52.0    1.401    2.355   160.9     7.9    20.5
2010 02 13    08 00.12   +11 43.7    1.396    2.325   154.3    10.6    20.5
2010 02 18    07 52.82   +11 35.6    1.397    2.294   147.7    13.3    20.6
2010 02 23    07 46.19   +11 27.5    1.405    2.263   141.2    15.9    20.7
2010 02 28    07 40.39   +11 19.4    1.419    2.232   135.0    18.3    20.7
2010 03 05    07 35.51   +11 11.1    1.437    2.200   128.9    20.5    20.8
2010 03 10    07 31.62   +11 02.6    1.459    2.167   123.1    22.6    20.9
2010 03 15    07 28.74   +10 53.8    1.484    2.134   117.5    24.4    20.9
2010 03 20    07 26.89   +10 44.5    1.511    2.100   112.2    26.0    21.0
2010 03 25    07 26.05   +10 34.5    1.540    2.066   107.1    27.5    21.0

2010 05 24    08 17.85   +06 26.7    1.799    1.621    63.4    33.9    21.0
2010 05 29    08 26.13   +05 48.9    1.804    1.581    60.9    34.0    21.0
2010 06 03    08 34.92   +05 07.6    1.805    1.542    58.5    34.1    20.9
2010 06 08    08 44.20   +04 22.6    1.804    1.502    56.3    34.2    20.9
2010 06 13    08 53.97   +03 33.6    1.799    1.462    54.3    34.4    20.8
2010 06 18    09 04.24   +02 40.6    1.791    1.422    52.4    34.5    20.8
2010 06 23    09 15.02   +01 43.5    1.780    1.382    50.7    34.7    20.7
2010 06 28    09 26.31   +00 42.1    1.766    1.342    49.1    34.9    20.6
2010 07 03    09 38.14   -00 23.5    1.749    1.303    47.7    35.2    20.5
2010 07 08    09 50.54   -01 33.4    1.729    1.265    46.4    35.6    20.5
2010 07 13    10 03.55   -02 47.6    1.707    1.227    45.3    36.1    20.4
2010 07 18    10 17.20   -04 05.8    1.682    1.190    44.3    36.6    20.3
2010 07 23    10 31.53   -05 27.9    1.655    1.154    43.5    37.3    20.2
2010 07 28    10 46.61   -06 53.5    1.626    1.120    42.9    38.1    20.1
2010 08 02    11 02.48   -08 21.9    1.595    1.088    42.4    39.0    20.0
2010 08 07    11 19.23   -09 52.6    1.563    1.057    42.1    40.0    20.0
2010 08 12    11 36.91   -11 24.5    1.531    1.030    41.9    41.1    19.9
2010 08 17    11 55.60   -12 56.5    1.498    1.005    41.9    42.3    19.8
2010 08 22    12 15.34   -14 27.0    1.465    0.984    42.0    43.5    19.8
2010 08 27    12 36.19   -15 54.4    1.434    0.967    42.3    44.7    19.7
2010 09 01    12 58.16   -17 16.4    1.404    0.953    42.8    46.0    19.7
2010 09 06    13 21.27   -18 31.1    1.376    0.945    43.4    47.1    19.6
2010 09 11    13 45.46   -19 36.1    1.350    0.940    44.1    48.2    19.6
2010 09 16    14 10.63   -20 29.1    1.329    0.941    44.9    49.0    19.6
2010 09 21    14 36.63   -21 08.0    1.311    0.946    45.9    49.7    19.6
2010 09 26    15 03.24   -21 31.4    1.298    0.955    46.9    50.1    19.6
2010 10 01    15 30.21   -21 38.3    1.290    0.969    48.0    50.2    19.7
2010 10 06    15 57.29   -21 28.3    1.288    0.987    49.2    50.0    19.7
2010 10 11    16 24.19   -21 02.0    1.292    1.009    50.3    49.6    19.7
2010 10 16    16 50.64   -20 20.6    1.302    1.034    51.4    48.9    19.8
2010 10 21    17 16.43   -19 25.6    1.317    1.062    52.5    48.0    19.8
2010 10 26    17 41.37   -18 19.3    1.339    1.093    53.4    46.9    19.9
2010 10 31    18 05.36   -17 03.7    1.366    1.125    54.2    45.7    20.0
2010 11 05    18 28.32   -15 41.0    1.399    1.160    54.9    44.4    20.1
2010 11 10    18 50.24   -14 13.2    1.436    1.196    55.4    43.0    20.1
2010 11 15    19 11.13   -12 42.0    1.479    1.233    55.8    41.6    20.2
2010 11 20    19 31.00   -11 08.8    1.525    1.271    56.0    40.1    20.3
2010 11 25    19 49.92   -09 34.8    1.575    1.310    56.0    38.7    20.4
2010 11 30    20 07.95   -08 01.0    1.629    1.349    55.8    37.2    20.5

Valid HTML 4.01!